This is the latest recevied weather packets stored in our database for station/object KC5DAQ-29. If no packets are shown the sender has not sent any weather packets the latest 1 day(s).
| Time | Temp. | Humidity | Pressure | Rain* | Wind** | Luminosity | Snow |
|---|---|---|---|---|---|---|---|
| 1778051343 | 24.44° C | 100% | 1006.6 hPa | 0 mm | 0.45 m/s, 145° | 0 W/m² | - |
| 1778051284 | 24.44° C | 100% | 1006.7 hPa | 0 mm | 0.45 m/s, 145° | 0 W/m² | - |
| 1778051223 | 24.44° C | 100% | 1006.7 hPa | 0 mm | 0.45 m/s, 145° | 0 W/m² | - |
| 1778051163 | 24.44° C | 100% | 1006.6 hPa | 0 mm | 0.45 m/s, 145° | 0 W/m² | - |
| 1778051072 | 24.44° C | 100% | 1006.6 hPa | 0 mm | 0.45 m/s, 145° | 0 W/m² | - |
| 1778051012 | 25° C | 100% | 1006.7 hPa | 0 mm | 0.89 m/s, 144° | 0 W/m² | - |
| 1778050953 | 25° C | 100% | 1006.7 hPa | 0 mm | 1.34 m/s, 171° | 0 W/m² | - |
| 1778050892 | 25° C | 100% | 1006.7 hPa | 0 mm | 1.34 m/s, 164° | 0 W/m² | - |
| 1778050824 | 25° C | 100% | 1006.7 hPa | 0 mm | 0.89 m/s, 166° | 0 W/m² | - |
| 1778050763 | 25° C | 100% | 1006.7 hPa | 0 mm | 1.34 m/s, 164° | 0 W/m² | - |
| 1778050703 | 25° C | 100% | 1006.8 hPa | 0 mm | 0.45 m/s, 159° | 0 W/m² | - |
| 1778050643 | 25° C | 100% | 1006.8 hPa | 0 mm | 0.45 m/s, 159° | 0 W/m² | - |
| 1778050582 | 25° C | 100% | 1006.8 hPa | 0 mm | 0.45 m/s, 159° | 0 W/m² | - |
| 1778050523 | 25° C | 100% | 1006.8 hPa | 0 mm | 0.45 m/s, 159° | 0 W/m² | - |
| 1778050462 | 25° C | 100% | 1006.9 hPa | 0 mm | 0.45 m/s, 159° | 0 W/m² | - |
| 1778050402 | 25° C | 100% | 1006.8 hPa | 0 mm | 0.45 m/s, 159° | 0 W/m² | - |
| 1778050343 | 25° C | 100% | 1006.9 hPa | 0 mm | 0.45 m/s, 159° | 0 W/m² | - |
| 1778050283 | 25° C | 100% | 1006.9 hPa | 0 mm | 0.45 m/s, 158° | 0 W/m² | - |
| 1778050223 | 25° C | 100% | 1006.9 hPa | 0 mm | 0 m/s | 0 W/m² | - |
| 1778050162 | 25° C | 100% | 1006.9 hPa | 0 mm | 0 m/s | 0 W/m² | - |
| 1778050102 | 25° C | 100% | 1006.8 hPa | 0 mm | 0.89 m/s, 164° | 0 W/m² | - |
| 1778050042 | 25° C | 100% | 1006.9 hPa | 0 mm | 0.45 m/s, 145° | 0 W/m² | - |
| 1778049984 | 25° C | 100% | 1006.9 hPa | 0 mm | 0 m/s | 0 W/m² | - |
| 1778049923 | 25° C | 100% | 1006.9 hPa | 0 mm | 0.45 m/s, 173° | 0 W/m² | - |
| 1778049863 | 25° C | 100% | 1006.8 hPa | 0 mm | 0.89 m/s, 175° | 0 W/m² | - |
* Rain latest hour (hover to see other rain measurements)
** Current wind speed in m/s (hover to see current wind gust speed)